CW5834 Weather Reports


Display with metric or nautical units.
time (UTC)temp
F
wind
direction
speed
MPH
gust
MPH
rain 1hr
in
rain 24hr
in
rain mn
in
humidity
%
barometer
mb
20211025203521 64 0.0 0.0 0.00 0.73 0.61 96 1009.1
20211025202515 63 180 1.0 7.0 0.00 0.73 0.61 97 1009.1
20211025201515 63 0.0 0.0 0.00 0.73 0.61 97 1009.2
20211025200521 62 0.0 0.0 0.01 0.73 0.61 97 1009.1
20211025195521 61 0.0 0.0 0.02 0.73 0.61 97 1009.0
20211025194521 61 0.0 0.0 0.08 0.73 0.61 97 1009.2
20211025193519 60 0.0 0.0 0.13 0.73 0.61 97 1009.1
20211025192521 59 0.0 0.0 0.18 0.73 0.61 97 1009.1
20211025191515 58 0.0 0.0 0.23 0.73 0.61 96 1008.8
20211025190521 58 0.0 0.0 0.30 0.71 0.60 96 1009.4
20211025185520 58 0.0 0.0 0.43 0.70 0.59 96 1009.4
20211025184521 58 0.0 0.0 0.43 0.64 0.54 96 1009.5
20211025183521 58 0.0 0.0 0.46 0.60 0.50 96 1009.4
20211025182521 58 0.0 0.0 0.49 0.55 0.46 96 1009.4
20211025181516 58 0.0 0.0 0.49 0.50 0.42 96 1009.6
20211025180515 58 0.0 0.0 0.42 0.42 0.35 95 1009.7
20211025175520 58 0.0 0.0 0.27 0.27 0.23 95 1009.9
20211025174520 58 0.0 0.0 0.21 0.21 0.18 95 1009.9
20211025173520 58 315 1.0 5.0 0.13 0.13 0.11 94 1010.0
20211025172520 59 315 4.0 10.0 0.06 0.06 0.05 93 1009.9
20211025171521 60 315 5.0 9.0 0.01 0.01 0.01 92 1009.8
20211025170515 61 0.0 0.0 0.00 0.00 0.00 91 1009.9
20211025165520 61 0.0 0.0 0.00 0.00 0.00 89 1010.0
20211025164520 61 0.0 0.0 0.00 0.00 0.00 89 1010.0
20211025163520 60 0.0 4.0 0.00 0.00 0.00 88 1010.3
20211025162520 61 0.0 0.0 0.00 0.00 0.00 88 1010.9
20211025161520 61 0.0 0.0 0.00 0.00 0.00 88 1010.9
20211025160520 61 0.0 0.0 0.00 0.00 0.00 88 1011.2
20211025155515 62 293 5.0 11.0 0.00 0.00 0.00 85 1011.5
20211025154520 65 203 1.0 7.0 0.00 0.00 0.00 79 1011.7
20211025153520 66 0.0 0.0 0.00 0.00 0.00 78 1012.0
20211025152521 67 0.0 5.0 0.00 0.00 0.00 77 1011.9
20211025151520 67 0.0 4.0 0.00 0.00 0.00 77 1012.6
20211025150520 66 203 1.0 7.0 0.00 0.00 0.00 78 1012.6
20211025145515 66 203 2.0 7.0 0.00 0.00 0.00 78 1012.6
20211025144515 66 180 1.0 8.0 0.00 0.00 0.00 77 1013.2
20211025143522 66 180 1.0 7.0 0.00 0.00 0.00 78 1013.4
20211025142522 65 0.0 0.0 0.00 0.00 0.00 81 1013.5
20211025141522 66 0.0 0.0 0.00 0.00 0.00 78 1013.9
20211025140517 66 113 1.0 5.0 0.00 0.00 0.00 82 1013.9
20211025135517 64 0.0 0.0 0.00 0.00 0.00 84 1014.3
20211025134522 62 0.0 0.0 0.00 0.00 0.00 86 1014.1
20211025133522 61 0.0 0.0 0.00 0.00 0.00 87 1014.4
20211025132522 60 0.0 0.0 0.00 0.00 0.00 92 1014.5
20211025131522 58 0.0 0.0 0.00 0.00 0.00 94 1014.3
20211025130522 57 0.0 0.0 0.00 0.00 0.00 97 1014.4
20211025125517 55 0.0 0.0 0.00 0.00 0.00 97 1014.1
20211025124522 55 0.0 0.0 0.00 0.00 0.00 97 1014.3
20211025123522 54 0.0 0.0 0.00 0.00 0.00 98 1014.7
20211025122522 52 0.0 0.0 0.00 0.00 0.00 97 1014.5
20211025121522 50 0.0 0.0 0.00 0.00 0.00 97 1013.8
20211025120522 50 0.0 0.0 0.00 0.00 0.00 97 1014.2
20211025115522 50 0.0 0.0 0.00 0.00 0.00 97 1014.3
20211025114517 50 0.0 0.0 0.00 0.00 0.00 97 1014.6
20211025113522 50 0.0 0.0 0.00 0.00 0.00 97 1014.8
20211025112522 49 0.0 0.0 0.00 0.00 0.00 97 1014.8
20211025111522 49 0.0 0.0 0.00 0.00 0.00 97 1015.1
20211025110522 49 0.0 0.0 0.00 0.00 0.00 97 1015.1
20211025105522 49 0.0 0.0 0.00 0.00 0.00 97 1015.3
20211025104517 49 0.0 0.0 0.00 0.00 0.00 96 1015.7
20211025103517 49 0.0 0.0 0.00 0.00 0.00 97 1015.5
20211025102522 48 0.0 0.0 0.00 0.00 0.00 97 1015.3
20211025101522 48 0.0 0.0 0.00 0.00 0.00 96 1014.9
20211025100522 48 0.0 0.0 0.00 0.00 0.00 96 1014.9
20211025095522 49 0.0 0.0 0.00 0.00 0.00 96 1015.1
20211025094522 49 0.0 0.0 0.00 0.00 0.00 96 1015.3
20211025093516 49 0.0 0.0 0.00 0.00 0.00 96 1015.6
20211025092521 49 0.0 0.0 0.00 0.00 0.00 96 1015.6
20211025091522 49 0.0 0.0 0.00 0.00 0.00 96 1015.6
20211025090521 50 0.0 0.0 0.00 0.00 0.00 96 1015.6
20211025085522 49 0.0 0.0 0.00 0.00 0.00 96 1015.5
20211025084521 49 0.0 0.0 0.00 0.00 0.00 96 1015.6
20211025083522 50 0.0 0.0 0.00 0.00 0.00 96 1016.0
20211025082516 50 0.0 0.0 0.00 0.00 0.00 96 1016.0
20211025081522 50 0.0 0.0 0.00 0.00 0.00 96 1016.3
20211025080521 50 0.0 0.0 0.00 0.00 0.00 95 1016.3
20211025075521 50 0.0 0.0 0.00 0.00 0.00 96 1016.3
20211025074521 51 0.0 0.0 0.00 0.00 0.00 95 1016.4
20211025073522 51 0.0 0.0 0.00 0.00 0.00 96 1016.4
20211025072521 51 0.0 0.0 0.00 0.00 0.00 95 1016.5
20211025071516 51 0.0 0.0 0.00 0.00 0.00 95 1016.6
20211025070522 51 0.0 0.0 0.00 0.00 0.00 95 1016.5
20211025065521 51 0.0 0.0 0.00 0.00 0.00 95 1016.4
20211025064526 51 0.0 0.0 0.00 0.00 0.00 94 1016.5
20211025063521 52 0.0 0.0 0.00 0.00 0.00 95 1016.8
20211025062521 52 0.0 0.0 0.00 0.00 0.00 94 1017.0
20211025061516 52 0.0 0.0 0.00 0.00 0.00 95 1016.7
20211025060521 52 0.0 0.0 0.00 0.00 0.00 94 1016.7
20211025055521 53 0.0 0.0 0.00 0.00 0.00 94 1016.9
20211025054521 53 0.0 0.0 0.00 0.00 0.00 94 1017.1
20211025053521 53 0.0 0.0 0.00 0.00 0.00 94 1017.2
20211025052521 54 0.0 0.0 0.00 0.00 0.00 94 1017.3
20211025051521 53 0.0 0.0 0.00 0.00 0.00 95 1017.3
20211025050516 53 0.0 0.0 0.00 0.00 0.00 94 1017.3
20211025045521 53 0.0 0.0 0.00 0.00 0.00 94 1017.4
20211025044521 54 0.0 0.0 0.00 0.00 0.00 94 1017.6
20211025043521 53 0.0 0.0 0.00 0.00 0.00 94 1017.6
20211025042521 54 0.0 0.0 0.00 0.00 0.00 93 1017.6
20211025041521 55 0.0 0.0 0.00 0.00 0.00 94 1017.8
20211025040516 54 0.0 0.0 0.00 0.00 0.00 94 1017.5
20211025035521 54 0.0 0.0 0.00 0.00 0.00 93 1017.5
20211025034516 54 0.0 0.0 0.00 0.00 0.00 94 1017.5
20211025033522 54 0.0 0.0 0.00 0.00 0.00 94 1017.4
20211025032522 54 0.0 0.0 0.00 0.00 0.00 93 1017.5
20211025031521 54 0.0 0.0 0.00 0.00 0.00 93 1017.5
20211025030521 54 0.0 0.0 0.00 0.00 0.00 93 1017.5
20211025025522 54 0.0 0.0 0.00 0.00 0.00 92 1017.5
20211025024516 54 0.0 0.0 0.00 0.00 0.00 92 1017.4
20211025023521 55 0.0 0.0 0.00 0.00 0.00 92 1017.4
20211025022521 55 0.0 0.0 0.00 0.00 0.00 91 1017.4
20211025021521 55 0.0 0.0 0.00 0.00 0.00 91 1017.4
20211025020521 55 0.0 0.0 0.00 0.00 0.00 91 1017.5
20211025015519 56 0.0 0.0 0.00 0.00 0.00 91 1017.4
20211025014521 56 0.0 0.0 0.00 0.00 0.00 90 1017.4
20211025013516 56 0.0 0.0 0.00 0.00 0.00 90 1017.2
20211025012521 57 0.0 0.0 0.00 0.00 0.00 89 1017.1
20211025011521 57 0.0 0.0 0.00 0.00 0.00 88 1017.1
20211025010521 57 0.0 0.0 0.00 0.00 0.00 88 1017.1
20211025005521 58 0.0 0.0 0.00 0.00 0.00 87 1017.1
20211025004521 58 0.0 0.0 0.00 0.00 0.00 86 1017.1
20211025003517 59 0.0 0.0 0.00 0.00 0.00 85 1017.2
20211025002516 59 0.0 0.0 0.00 0.00 0.00 85 1017.3
20211025001521 59 0.0 0.0 0.00 0.00 0.00 84 1017.3
20211025000521 59 0.0 0.0 0.00 0.00 0.00 84 1017.4
20211024235521 59 0.0 0.0 0.00 0.00 0.00 85 1017.3
20211024234521 59 0.0 0.0 0.00 0.00 0.00 85 1017.2
20211024233521 59 0.0 0.0 0.00 0.00 0.00 83 1017.3
20211024232516 60 0.0 0.0 0.00 0.00 0.00 83 1017.4
20211024231521 60 0.0 0.0 0.00 0.00 0.00 81 1017.5
20211024230521 61 0.0 0.0 0.00 0.00 0.00 80 1017.4
20211024225521 62 0.0 0.0 0.00 0.00 0.00 78 1017.5
20211024224521 63 0.0 0.0 0.00 0.00 0.00 77 1017.6
20211024223521 64 0.0 0.0 0.00 0.00 0.00 76 1017.9
20211024222521 64 0.0 0.0 0.00 0.00 0.00 75 1018.0
20211024221516 64 0.0 0.0 0.00 0.00 0.00 75 1018.1
20211024220521 65 0.0 0.0 0.00 0.00 0.00 74 1018.2
20211024215521 66 0.0 0.0 0.00 0.00 0.00 72 1018.3
20211024214521 67 0.0 0.0 0.00 0.00 0.00 70 1018.4
20211024213521 69 0.0 0.0 0.00 0.00 0.00 67 1018.6
20211024212521 70 0.0 0.0 0.00 0.00 0.00 62 1018.6
20211024211516 71 0.0 0.0 0.00 0.00 0.00 56 1018.6
20211024210551 72 0.0 0.0 0.00 0.00 0.00 57 1018.5
20211024205522 73 203 1.0 6.0 0.00 0.00 0.00 54 1018.7
20211024204521 74 203 2.0 6.0 0.00 0.00 0.00 51 1018.6